Location: Fountain Hills
(33.6120°N, 111.7170°W)
Time: 04:47:47
(UTC-07:00)

Daily predictions for brighter satellites

Satellite Brightness Start Highest point End
(mag) Time Altitude Azimuth Time Altitude Azimuth Time Altitude Azimuth
CZ-4C R/B 3.4 04:13:00 36° NE 04:13:00 36° NE 04:16:25 10° NE
USA 234 3.1 04:25:34 10° NE 04:32:08 84° SE 04:32:32 79° S
Meteor 2-10 Rocket 4.2 04:35:43 46° NE 04:35:43 46° NE 04:39:24 10° NNE
Okean 1-7 4.4 04:37:17 35° ENE 04:37:17 35° ENE 04:40:19 10° NNE
ATLAS 3B R/B 3.6 04:38:40 12° S 04:45:22 50° ESE 04:52:27 10° NE
Cosmos 1452 Rocket 4.3 04:48:20 42° N 04:48:20 42° N 04:51:52 10° N
ATLAS 5 CENTAUR R/B 4.3 04:51:18 12° N 04:51:18 12° N 04:51:49 10° N
Cosmos 1833 4.1 04:53:20 71° SSW 04:53:20 71° SSW 04:58:27 10° SSE
Cosmos 1943 Rocket 3.9 04:56:39 18° NNW 04:56:39 18° NNW 04:58:29 10° N
Nadezhda 2 Rocket 4.3 04:53:40 10° NNW 04:59:43 65° W 05:05:47 10° S
Cosmos 1782 Rocket 3.6 04:59:38 10° N 05:04:06 78° E 05:08:30 10° S
Feng Yun 1-1 Rocket 4.3 05:01:17 10° NNE 05:07:13 86° ESE 05:13:09 10° SSW
Cosmos 676 Rocket 3.9 05:08:26 46° NW 05:09:49 65° WSW 05:15:05 10° S
ADEOS II 3.3 05:06:56 10° N 05:09:35 25° NNW 05:09:35 25° NNW
Cosmos 1140 Rocket 3.5 05:09:23 10° NNW 05:14:39 82° ENE 05:19:54 10° SSE
Cosmos 1417 Rocket 4.3 05:09:07 10° SSW 05:15:14 65° W 05:21:20 10° N
CZ-4B R/B 4.3 05:10:36 10° N 05:14:01 28° NW 05:14:01 28° NW
Cosmos 614 Rocket 4.4 05:11:30 10° N 05:16:34 62° ENE 05:21:39 10° SSE
Tiangong 1 3.6 05:19:40 13° NNE 05:19:40 13° NNE 05:20:37 10° NNE
Cosmos 1745 Rocket 4.2 05:13:30 10° N 05:19:37 68° E 05:25:42 10° SSE
ATLAS CENTAUR R/B 4.2 05:16:13 32° WNW 05:19:52 52° SW 05:39:32 10° SSE
Lacrosse 5 rocket 4.1 05:22:41 10° NNE 05:23:19 10° NE 05:23:58 10° NE
Okean-O 2.7 05:20:22 10° N 05:24:41 54° WNW 05:25:43 43° WSW
Meteor 1-20 Rocket 4.3 05:21:39 10° N 05:27:20 76° E 05:32:51 10° SSE
USA 81 4.2 05:22:42 10° S 05:27:56 74° E 05:33:12 10° N
Cosmos 1606 3.0 05:25:12 10° S 05:29:01 66° E 05:32:53 10° NNE
CZ-4B R/B 4.1 05:25:19 10° N 05:29:16 49° WNW 05:30:07 42° WSW
Lacrosse 5 4.1 05:34:59 10° NNW 05:35:18 11° NNW 05:36:18 10° NNW
Okean 2 Rocket 3.0 05:31:30 10° NNW 05:35:50 60° W 05:40:09 10° S
Cosmos 1782 2.7 05:34:35 10° SSW 05:38:30 65° W 05:42:27 10° N
Delta 2 Rocket 3.8 05:37:46 33° W 05:39:51 71° N 05:45:06 10° E
Cosmos 2369 4.5 05:34:37 10° S 05:40:05 54° ESE 05:45:34 10° NNE
DELTA 2 R/B (2) 3.5 05:42:06 66° NW 05:42:15 69° NNW 05:44:22 10° ENE
Cosmos 1607 3.9 05:38:25 12° SW 05:43:59 64° WNW 05:50:07 10° NNE
ISS -0.1 05:45:24 10° SE 05:46:29 11° SE 05:47:35 10° ESE
Cosmos 2297 Rocket 4.2 05:45:00 10° N 05:49:49 28° ENE 05:54:36 10° ESE
Cosmos 1850 Rocket 3.9 05:47:22 10° NNW 05:52:41 70° WSW 05:57:55 10° S
Cosmos 2151 Rocket 3.5 05:51:15 10° N 05:55:46 82° W 06:00:12 10° S
Cosmos 2278 3.8 05:50:26 10° SSW 05:56:03 81° ESE 06:01:43 10° NNE
GEOS 3 Rocket 4.0 05:51:42 10° S 05:56:28 42° WSW 06:01:17 10° NW
Meteor 2-6 Rocket 4.0 05:51:47 10° SSW 05:57:06 65° W 06:02:29 10° N
CZ-4C R/B 3.6 05:58:12 15° WNW 05:59:54 18° NW 06:03:44 10° N
Ariane Rocket 3.2 05:55:53 10° NNE 06:00:58 75° ESE 06:06:02 10° S
Meteor 1-31 Rocket 4.3 05:58:47 10° NNW 06:01:04 17° WNW 06:01:04 17° WNW
Gblst 52 Del rocket 4.4 05:56:39 14° WSW 06:01:25 62° NW 06:07:39 10° NE
COSMO-SKYMED 1 2.5 05:57:29 10° S 06:01:47 67° W 06:06:07 10° NNW
Cosmos 1633 2.9 06:02:23 10° N 06:05:59 69° E 06:09:33 10° SSE
Cosmos 2219 3.6 06:02:33 10° NW 06:07:49 41° WSW 06:13:02 10° S
Cosmos 2227 Rocket 2.9 06:04:51 10° NNW 06:10:27 57° ENE 06:16:00 10° SE
Cosmos 1656 4.1 06:08:02 10° S 06:13:41 71° ESE 06:19:22 10° NNE
USA 234 4.3 06:09:17 10° NNE 06:14:36 28° NNW 06:19:55 10° W
NOSS 3-2 (A) 4.2 06:09:32 10° SSW 06:15:17 55° ESE 06:21:27 10° NE
USA 238 DEB 3.8 06:08:54 10° SW 06:15:50 66° WNW 06:22:50 10° NNE
USA 238 3.8 06:08:59 10° SW 06:15:56 67° WNW 06:22:56 10° NNE
Cosmos 1331 Rocket 4.0 06:13:21 10° SSW 06:18:27 62° WNW 06:23:37 10° N
IDEFIX/ARIANE 42P 3.2 06:17:05 10° NNE 06:22:16 62° E 06:27:22 10° S
Cosmos 1110 Rocket 4.5 06:28:49 10° SW 06:33:35 37° WNW 06:38:23 10° N
CZ-4 R/B 1.7 06:31:27 10° NNE 06:35:36 76° ESE 06:39:38 10° S
ATLAS 3B R/B 3.6 06:29:36 10° WSW 06:36:17 33° NW 06:42:47 10° NNE
Cosmos 1697 Rocket 3.0 06:30:49 10° SSW 06:36:26 78° ESE 06:42:07 10° NNE
